Location: Allos
(44.2333°N, 6.6333°E)
Time: 08:58:31
(UTC+00:00)

USA 281 - Pass Details

Date: 01 December 2020
Orbit: 1074 x 1084 km, 106.0° (Epoch: 22 January)

Event Time Altitude Azimuth Distance (km) Brightness Sun altitude
Rises 17:19:04 0° 127° (SE) 3,873 5.8 -14.5°
Reaches altitude 10° 17:21:44 10° 120° (ESE) 2,919 5.1 -14.9°
Maximum altitude 17:27:42 39° 54° (NE) 1,565 3.6 -16.0°
Drops below altitude 10° 17:33:41 10° 349° (NNW) 2,926 5.5 -17.0°
Sets 17:36:21 0° 342° (NNW) 3,884 6.2 -17.5°
